Year,Month,Day,Hour,Minute,Value (Times are PST for windspeed in km/hr)
2007,11,13,00,00,8.90
2007,11,13,00,01,10.10
2007,11,13,00,02,13.80
2007,11,13,00,03,9.70
2007,11,13,00,04,7.40
2007,11,13,00,05,8.20
2007,11,13,00,06,11.60
2007,11,13,00,07,13.00
2007,11,13,00,08,16.90
2007,11,13,00,09,9.60
2007,11,13,00,10,13.30
2007,11,13,00,11,7.60
2007,11,13,00,12,6.80
2007,11,13,00,13,3.10
2007,11,13,00,14,4.80
2007,11,13,00,15,5.20
2007,11,13,00,16,7.50
2007,11,13,00,17,10.20
2007,11,13,00,18,12.50
2007,11,13,00,19,11.30
2007,11,13,00,20,14.90
2007,11,13,00,21,13.00
2007,11,13,00,22,8.50
2007,11,13,00,23,8.10
2007,11,13,00,24,7.10
2007,11,13,00,25,7.80
2007,11,13,00,26,9.90
2007,11,13,00,27,6.10
2007,11,13,00,28,4.60
2007,11,13,00,29,3.80
2007,11,13,00,30,8.90
2007,11,13,00,31,4.00
2007,11,13,00,32,2.60
2007,11,13,00,33,1.60
2007,11,13,00,34,0.40
2007,11,13,00,35,1.50
2007,11,13,00,36,1.30
2007,11,13,00,37,0.10
2007,11,13,00,38,0.00
2007,11,13,00,39,0.10
2007,11,13,00,40,0.10
2007,11,13,00,41,0.00
2007,11,13,00,42,0.50
2007,11,13,00,43,0.50
2007,11,13,00,44,0.10
2007,11,13,00,45,0.20
2007,11,13,00,46,1.00
2007,11,13,00,47,2.70
2007,11,13,00,48,2.80
2007,11,13,00,49,1.80
2007,11,13,00,50,3.20
2007,11,13,00,51,3.60
2007,11,13,00,52,2.50
2007,11,13,00,53,3.70
2007,11,13,00,54,2.80
2007,11,13,00,55,3.00
2007,11,13,00,56,3.80
2007,11,13,00,57,4.60
2007,11,13,00,58,3.40
2007,11,13,00,59,6.30
2007,11,13,01,00,4.20
2007,11,13,01,01,4.90
2007,11,13,01,02,7.40
2007,11,13,01,03,6.40
2007,11,13,01,04,4.30
2007,11,13,01,05,3.10
2007,11,13,01,06,3.50
2007,11,13,01,07,3.70
2007,11,13,01,08,5.00
2007,11,13,01,09,6.00
2007,11,13,01,10,6.60
2007,11,13,01,11,7.70
2007,11,13,01,12,7.60
2007,11,13,01,13,8.00
2007,11,13,01,14,9.90
2007,11,13,01,15,8.80
2007,11,13,01,16,10.50
2007,11,13,01,17,8.90
2007,11,13,01,18,6.90
2007,11,13,01,19,8.60
2007,11,13,01,20,8.20
2007,11,13,01,21,6.90
2007,11,13,01,22,4.70
2007,11,13,01,23,6.80
2007,11,13,01,24,7.60
2007,11,13,01,25,8.20
2007,11,13,01,26,6.40
2007,11,13,01,27,6.30
2007,11,13,01,28,5.20
2007,11,13,01,29,5.50
2007,11,13,01,30,7.80
2007,11,13,01,31,10.20
2007,11,13,01,32,10.60
2007,11,13,01,33,10.00
2007,11,13,01,34,8.90
2007,11,13,01,35,9.20
2007,11,13,01,36,9.80
2007,11,13,01,37,6.70
2007,11,13,01,38,9.20
2007,11,13,01,39,7.00
2007,11,13,01,40,5.90
2007,11,13,01,41,6.80
2007,11,13,01,42,7.90
2007,11,13,01,43,9.90
2007,11,13,01,44,7.90
2007,11,13,01,45,11.80
2007,11,13,01,46,10.10
2007,11,13,01,47,8.30
2007,11,13,01,48,8.20
2007,11,13,01,49,11.50
2007,11,13,01,50,8.90
2007,11,13,01,51,9.40
2007,11,13,01,52,7.90
2007,11,13,01,53,5.30
2007,11,13,01,54,8.40
2007,11,13,01,55,8.80
2007,11,13,01,56,7.70
2007,11,13,01,57,8.10
2007,11,13,01,58,13.40
2007,11,13,01,59,8.70
2007,11,13,02,00,10.20
2007,11,13,02,01,9.50
2007,11,13,02,02,8.50
2007,11,13,02,03,13.40
2007,11,13,02,04,9.20
2007,11,13,02,05,11.60
2007,11,13,02,06,15.40
2007,11,13,02,07,10.50
2007,11,13,02,08,10.60
2007,11,13,02,09,7.80
2007,11,13,02,10,4.90
2007,11,13,02,11,7.80
2007,11,13,02,12,6.50
2007,11,13,02,13,5.40
2007,11,13,02,14,5.70
2007,11,13,02,15,5.50
2007,11,13,02,16,3.90
2007,11,13,02,17,4.00
2007,11,13,02,18,5.40
2007,11,13,02,19,7.40
2007,11,13,02,20,7.40
2007,11,13,02,21,4.30
2007,11,13,02,22,5.40
2007,11,13,02,23,3.60
2007,11,13,02,24,3.40
2007,11,13,02,25,4.80
2007,11,13,02,26,6.10
2007,11,13,02,27,5.40
2007,11,13,02,28,4.20
2007,11,13,02,29,5.60
2007,11,13,02,30,7.00
2007,11,13,02,31,7.20
2007,11,13,02,32,4.00
2007,11,13,02,33,3.50
2007,11,13,02,34,2.50
2007,11,13,02,35,3.60
2007,11,13,02,36,1.20
2007,11,13,02,37,4.00
2007,11,13,02,38,8.20
2007,11,13,02,39,9.50
2007,11,13,02,40,6.80
2007,11,13,02,41,6.00
2007,11,13,02,42,1.30
2007,11,13,02,43,0.80
2007,11,13,02,44,1.80
2007,11,13,02,45,1.50
2007,11,13,02,46,1.50
2007,11,13,02,47,0.20
2007,11,13,02,48,1.50
2007,11,13,02,49,2.60
2007,11,13,02,50,1.80
2007,11,13,02,51,1.50
2007,11,13,02,52,1.50
2007,11,13,02,53,0.00
2007,11,13,02,54,0.00
2007,11,13,02,55,1.20
2007,11,13,02,56,0.00
2007,11,13,02,57,0.00
2007,11,13,02,58,0.10
2007,11,13,02,59,0.10
2007,11,13,03,00,0.00
2007,11,13,03,01,0.00
2007,11,13,03,02,0.00
2007,11,13,03,03,0.90
2007,11,13,03,04,0.00
2007,11,13,03,05,0.00
2007,11,13,03,06,0.00
2007,11,13,03,07,0.00
2007,11,13,03,08,0.30
2007,11,13,03,09,0.40
2007,11,13,03,10,0.10
2007,11,13,03,11,1.20
2007,11,13,03,12,0.20
2007,11,13,03,13,0.00
2007,11,13,03,14,0.00
2007,11,13,03,15,0.00
2007,11,13,03,16,0.00
2007,11,13,03,17,0.00
2007,11,13,03,18,1.40
2007,11,13,03,19,1.80
2007,11,13,03,20,2.70
2007,11,13,03,21,2.50
2007,11,13,03,22,1.30
2007,11,13,03,23,0.80
2007,11,13,03,24,1.30
2007,11,13,03,25,2.10
2007,11,13,03,26,3.90
2007,11,13,03,27,4.60
2007,11,13,03,28,4.50
2007,11,13,03,29,2.50
2007,11,13,03,30,0.90
2007,11,13,03,31,0.20
2007,11,13,03,32,0.10
2007,11,13,03,33,1.50
2007,11,13,03,34,0.40
2007,11,13,03,35,0.10
2007,11,13,03,36,0.40
2007,11,13,03,37,0.10
2007,11,13,03,38,1.90
2007,11,13,03,39,0.40
2007,11,13,03,40,0.30
2007,11,13,03,41,0.00
2007,11,13,03,42,0.40
2007,11,13,03,43,0.80
2007,11,13,03,44,2.30
2007,11,13,03,45,2.00
2007,11,13,03,46,1.40
2007,11,13,03,47,0.00
2007,11,13,03,48,1.30
2007,11,13,03,49,1.20
2007,11,13,03,50,2.50
2007,11,13,03,51,3.00
2007,11,13,03,52,1.80
2007,11,13,03,53,0.10
2007,11,13,03,54,1.90
2007,11,13,03,55,2.90
2007,11,13,03,56,3.30
2007,11,13,03,57,2.70
2007,11,13,03,58,4.10
2007,11,13,03,59,3.50
2007,11,13,04,00,3.10
2007,11,13,04,01,4.40
2007,11,13,04,02,2.80
2007,11,13,04,03,1.70
2007,11,13,04,04,1.40
2007,11,13,04,05,2.80
2007,11,13,04,06,0.80
2007,11,13,04,07,1.90
2007,11,13,04,08,4.10
2007,11,13,04,09,5.00
2007,11,13,04,10,3.10
2007,11,13,04,11,3.30
2007,11,13,04,12,5.00
2007,11,13,04,13,3.50
2007,11,13,04,14,3.70
2007,11,13,04,15,4.10
2007,11,13,04,16,4.80
2007,11,13,04,17,5.20
2007,11,13,04,18,4.40
2007,11,13,04,19,8.70
2007,11,13,04,20,7.50
2007,11,13,04,21,7.80
2007,11,13,04,22,8.60
2007,11,13,04,23,7.50
2007,11,13,04,24,5.20
2007,11,13,04,25,6.40
2007,11,13,04,26,6.10
2007,11,13,04,27,7.30
2007,11,13,04,28,7.00
2007,11,13,04,29,7.20
2007,11,13,04,30,6.40
2007,11,13,04,31,6.40
2007,11,13,04,32,6.80
2007,11,13,04,33,8.50
2007,11,13,04,34,8.10
2007,11,13,04,35,7.20
2007,11,13,04,36,7.00
2007,11,13,04,37,5.70
2007,11,13,04,38,6.00
2007,11,13,04,39,8.40
2007,11,13,04,40,8.90
2007,11,13,04,41,8.40
2007,11,13,04,42,8.90
2007,11,13,04,43,9.00
2007,11,13,04,44,9.40
2007,11,13,04,45,10.50
2007,11,13,04,46,11.70
2007,11,13,04,47,11.90
2007,11,13,04,48,12.20
2007,11,13,04,49,9.40
2007,11,13,04,50,6.40
2007,11,13,04,51,6.90
2007,11,13,04,52,7.90
2007,11,13,04,53,12.20
2007,11,13,04,54,9.50
2007,11,13,04,55,7.60
2007,11,13,04,56,8.20
2007,11,13,04,57,7.50
2007,11,13,04,58,11.50
2007,11,13,04,59,9.20
2007,11,13,05,00,14.50
2007,11,13,05,01,18.00
2007,11,13,05,02,14.30
2007,11,13,05,03,10.10
2007,11,13,05,04,15.70
2007,11,13,05,05,14.10
2007,11,13,05,06,13.50
2007,11,13,05,07,14.20
2007,11,13,05,08,13.40
2007,11,13,05,09,13.40
2007,11,13,05,10,12.50
2007,11,13,05,11,14.00
2007,11,13,05,12,11.50
2007,11,13,05,13,15.80
2007,11,13,05,14,12.80
2007,11,13,05,15,13.50
2007,11,13,05,16,8.50
2007,11,13,05,17,12.00
2007,11,13,05,18,11.30
2007,11,13,05,19,14.50
2007,11,13,05,20,12.90
2007,11,13,05,21,9.80
2007,11,13,05,22,14.20
2007,11,13,05,23,12.10
2007,11,13,05,24,8.60
2007,11,13,05,25,8.70
2007,11,13,05,26,8.70
2007,11,13,05,27,7.50
2007,11,13,05,28,8.20
2007,11,13,05,29,7.40
2007,11,13,05,30,8.40
2007,11,13,05,31,11.40
2007,11,13,05,32,8.80
2007,11,13,05,33,6.20
2007,11,13,05,34,5.90
2007,11,13,05,35,5.10
2007,11,13,05,36,6.40
2007,11,13,05,37,8.50
2007,11,13,05,38,7.00
2007,11,13,05,39,8.80
2007,11,13,05,40,9.80
2007,11,13,05,41,9.70
2007,11,13,05,42,11.30
2007,11,13,05,43,10.30
2007,11,13,05,44,11.30
2007,11,13,05,45,10.70
2007,11,13,05,46,11.20
2007,11,13,05,47,11.90
2007,11,13,05,48,12.20
2007,11,13,05,49,13.80
2007,11,13,05,50,13.50
2007,11,13,05,51,16.10
2007,11,13,05,52,13.10
2007,11,13,05,53,9.30
2007,11,13,05,54,12.50
2007,11,13,05,55,12.70
2007,11,13,05,56,12.50
2007,11,13,05,57,14.20
2007,11,13,05,58,12.20
2007,11,13,05,59,11.10
2007,11,13,06,00,10.50
2007,11,13,06,01,9.60
2007,11,13,06,02,9.70
2007,11,13,06,03,11.60
2007,11,13,06,04,9.40
2007,11,13,06,05,12.60
2007,11,13,06,06,14.10
2007,11,13,06,07,13.60
2007,11,13,06,08,16.10
2007,11,13,06,09,16.30
2007,11,13,06,10,14.60
2007,11,13,06,11,12.50
2007,11,13,06,12,11.80
2007,11,13,06,13,9.60
2007,11,13,06,14,8.90
2007,11,13,06,15,10.50
2007,11,13,06,16,12.50
2007,11,13,06,17,12.10
2007,11,13,06,18,10.70
2007,11,13,06,19,5.80
2007,11,13,06,20,8.00
2007,11,13,06,21,10.10
2007,11,13,06,22,13.30
2007,11,13,06,23,9.60
2007,11,13,06,24,9.90
2007,11,13,06,25,13.20
2007,11,13,06,26,14.70
2007,11,13,06,27,16.00
2007,11,13,06,28,11.90
2007,11,13,06,29,11.30
2007,11,13,06,30,13.60
2007,11,13,06,31,11.10
2007,11,13,06,32,10.00
2007,11,13,06,33,11.50
2007,11,13,06,34,14.20
2007,11,13,06,35,16.60
2007,11,13,06,36,12.40
2007,11,13,06,37,18.00
2007,11,13,06,38,15.60
2007,11,13,06,39,11.70
2007,11,13,06,40,16.80
2007,11,13,06,41,16.60
2007,11,13,06,42,17.40
2007,11,13,06,43,15.90
2007,11,13,06,44,14.60
2007,11,13,06,45,15.90
2007,11,13,06,46,13.20
2007,11,13,06,47,12.70
2007,11,13,06,48,10.60
2007,11,13,06,49,13.30
2007,11,13,06,50,11.70
2007,11,13,06,51,13.80
2007,11,13,06,52,14.20
2007,11,13,06,53,14.10
2007,11,13,06,54,10.50
2007,11,13,06,55,12.70
2007,11,13,06,56,13.10
2007,11,13,06,57,12.60
2007,11,13,06,58,12.70
2007,11,13,06,59,15.90
2007,11,13,07,00,14.80
2007,11,13,07,01,12.20
2007,11,13,07,02,13.80
2007,11,13,07,03,10.00
2007,11,13,07,04,13.40
2007,11,13,07,05,13.00
2007,11,13,07,06,11.90
2007,11,13,07,07,10.20
2007,11,13,07,08,12.10
2007,11,13,07,09,11.10
2007,11,13,07,10,9.60
2007,11,13,07,11,11.50
2007,11,13,07,12,11.80
2007,11,13,07,13,11.10
2007,11,13,07,14,9.30
2007,11,13,07,15,7.50
2007,11,13,07,16,8.30
2007,11,13,07,17,10.00
2007,11,13,07,18,8.60
2007,11,13,07,19,8.60
2007,11,13,07,20,9.50
2007,11,13,07,21,8.90
2007,11,13,07,22,8.70
2007,11,13,07,23,6.20
2007,11,13,07,24,7.70
2007,11,13,07,25,9.10
2007,11,13,07,26,10.10
2007,11,13,07,27,9.70
2007,11,13,07,28,8.80
2007,11,13,07,29,9.50
2007,11,13,07,30,13.80
2007,11,13,07,31,12.30
2007,11,13,07,32,11.60
2007,11,13,07,33,10.70
2007,11,13,07,34,8.60
2007,11,13,07,35,10.10
2007,11,13,07,36,7.40
2007,11,13,07,37,7.90
2007,11,13,07,38,8.40
2007,11,13,07,39,8.50
2007,11,13,07,40,7.20
2007,11,13,07,41,8.50
2007,11,13,07,42,8.90
2007,11,13,07,43,9.20
2007,11,13,07,44,10.60
2007,11,13,07,45,9.30
2007,11,13,07,46,8.40
2007,11,13,07,47,7.60
2007,11,13,07,48,5.60
2007,11,13,07,49,4.90
2007,11,13,07,50,4.90
2007,11,13,07,51,5.00
2007,11,13,07,52,3.90
2007,11,13,07,53,2.40
2007,11,13,07,54,2.20
2007,11,13,07,55,1.10
2007,11,13,07,56,0.40
2007,11,13,07,57,0.60
2007,11,13,07,58,1.80
2007,11,13,07,59,2.60
2007,11,13,08,00,0.30
2007,11,13,08,01,0.00
2007,11,13,08,02,0.00
2007,11,13,08,03,0.10
2007,11,13,08,04,0.00
2007,11,13,08,05,0.00
2007,11,13,08,06,0.00
2007,11,13,08,07,0.00
2007,11,13,08,08,0.10
2007,11,13,08,09,0.00
2007,11,13,08,10,0.40
2007,11,13,08,11,0.20
2007,11,13,08,12,2.50
2007,11,13,08,13,0.20
2007,11,13,08,14,1.00
2007,11,13,08,15,1.70
2007,11,13,08,16,1.60
2007,11,13,08,17,0.40
2007,11,13,08,18,0.70
2007,11,13,08,19,3.00
2007,11,13,08,20,2.20
2007,11,13,08,21,4.00
2007,11,13,08,22,4.70
2007,11,13,08,23,5.90
2007,11,13,08,24,5.80
2007,11,13,08,25,5.30
2007,11,13,08,26,5.20
2007,11,13,08,27,4.70
2007,11,13,08,28,4.60
2007,11,13,08,29,6.40
2007,11,13,08,30,6.40
2007,11,13,08,31,5.80
2007,11,13,08,32,7.00
2007,11,13,08,33,6.70
2007,11,13,08,34,7.40
2007,11,13,08,35,9.20
2007,11,13,08,36,8.20
2007,11,13,08,37,10.60
2007,11,13,08,38,8.50
2007,11,13,08,39,8.10
2007,11,13,08,40,6.60
2007,11,13,08,41,3.60
2007,11,13,08,42,6.60
2007,11,13,08,43,9.70
2007,11,13,08,44,9.80
2007,11,13,08,45,10.20
2007,11,13,08,46,13.60
2007,11,13,08,47,13.20
2007,11,13,08,48,13.10
2007,11,13,08,49,12.20
2007,11,13,08,50,16.00
2007,11,13,08,51,16.30
2007,11,13,08,52,17.30
2007,11,13,08,53,15.50
2007,11,13,08,54,17.90
2007,11,13,08,55,14.70
2007,11,13,08,56,15.40
2007,11,13,08,57,16.30
2007,11,13,08,58,10.90
2007,11,13,08,59,11.30
2007,11,13,09,00,13.40
2007,11,13,09,01,13.80
2007,11,13,09,02,8.20
2007,11,13,09,03,17.00
2007,11,13,09,04,15.80
2007,11,13,09,05,16.70
2007,11,13,09,06,11.00
2007,11,13,09,07,13.80
2007,11,13,09,08,14.40
2007,11,13,09,09,18.00
2007,11,13,09,10,16.00
2007,11,13,09,11,15.00
2007,11,13,09,12,11.60
2007,11,13,09,13,9.70
2007,11,13,09,14,9.00
2007,11,13,09,15,7.60
2007,11,13,09,16,10.50
2007,11,13,09,17,10.10
2007,11,13,09,18,7.70
2007,11,13,09,19,12.90
2007,11,13,09,20,11.30
2007,11,13,09,21,9.30
2007,11,13,09,22,10.40
2007,11,13,09,23,11.20
2007,11,13,09,24,7.70
2007,11,13,09,25,5.80
2007,11,13,09,26,7.20
2007,11,13,09,27,5.80
2007,11,13,09,28,10.10
2007,11,13,09,29,9.70
2007,11,13,09,30,11.60
2007,11,13,09,31,10.70
2007,11,13,09,32,8.90
2007,11,13,09,33,7.80
2007,11,13,09,34,8.10
2007,11,13,09,35,7.30
2007,11,13,09,36,3.90
2007,11,13,09,37,7.60
2007,11,13,09,38,10.90
2007,11,13,09,39,4.70
2007,11,13,09,40,9.10
2007,11,13,09,41,8.10
2007,11,13,09,42,9.30
2007,11,13,09,43,7.10
2007,11,13,09,44,8.60
2007,11,13,09,45,8.70
2007,11,13,09,46,6.90
2007,11,13,09,47,9.70
2007,11,13,09,48,9.40
2007,11,13,09,49,5.90
2007,11,13,09,50,5.60
2007,11,13,09,51,8.30
2007,11,13,09,52,5.60
2007,11,13,09,53,7.00
2007,11,13,09,54,7.30
2007,11,13,09,55,9.30
2007,11,13,09,56,10.90
2007,11,13,09,57,8.60
2007,11,13,09,58,6.30
2007,11,13,09,59,10.90
2007,11,13,10,00,8.40
2007,11,13,10,01,6.20
2007,11,13,10,02,6.50
2007,11,13,10,03,7.10
2007,11,13,10,04,4.60
2007,11,13,10,05,6.40
2007,11,13,10,06,6.40
2007,11,13,10,07,7.10
2007,11,13,10,08,6.00
2007,11,13,10,09,2.40
2007,11,13,10,10,1.60
2007,11,13,10,11,4.30
2007,11,13,10,12,5.00
2007,11,13,10,13,6.80
2007,11,13,10,14,3.90
2007,11,13,10,15,3.40
2007,11,13,10,16,3.60
2007,11,13,10,17,2.60
2007,11,13,10,18,2.80
2007,11,13,10,19,4.40
2007,11,13,10,20,4.10
2007,11,13,10,21,4.00
2007,11,13,10,22,1.60
2007,11,13,10,23,5.20
2007,11,13,10,24,9.10
2007,11,13,10,25,8.00
2007,11,13,10,26,6.70
2007,11,13,10,27,7.90
2007,11,13,10,28,5.30
2007,11,13,10,29,10.00
2007,11,13,10,30,6.40
2007,11,13,10,31,5.10
2007,11,13,10,32,7.70
2007,11,13,10,33,5.50
2007,11,13,10,34,6.40
2007,11,13,10,35,5.30
2007,11,13,10,36,1.40
2007,11,13,10,37,4.10
2007,11,13,10,38,3.50
2007,11,13,10,39,4.30
2007,11,13,10,40,8.40
2007,11,13,10,41,7.10
2007,11,13,10,42,7.00
2007,11,13,10,43,8.10
2007,11,13,10,44,5.80
2007,11,13,10,45,7.60
2007,11,13,10,46,7.10
2007,11,13,10,47,4.90
2007,11,13,10,48,1.10
2007,11,13,10,49,3.90
2007,11,13,10,50,6.50
2007,11,13,10,51,7.60
2007,11,13,10,52,5.00
2007,11,13,10,53,3.30
2007,11,13,10,54,7.80
2007,11,13,10,55,4.90
2007,11,13,10,56,5.20
2007,11,13,10,57,2.80
2007,11,13,10,58,3.60
2007,11,13,10,59,3.90
2007,11,13,11,00,5.30
2007,11,13,11,01,4.20
2007,11,13,11,02,5.40
2007,11,13,11,03,3.90
2007,11,13,11,04,2.80
2007,11,13,11,05,2.40
2007,11,13,11,06,3.60
2007,11,13,11,07,2.80
2007,11,13,11,08,0.20
2007,11,13,11,09,3.70
2007,11,13,11,10,3.90
2007,11,13,11,11,5.70
2007,11,13,11,12,4.10
2007,11,13,11,13,5.30
2007,11,13,11,14,4.70
2007,11,13,11,15,4.30
2007,11,13,11,16,0.80
2007,11,13,11,17,2.00
2007,11,13,11,18,2.80
2007,11,13,11,19,1.90
2007,11,13,11,20,0.10
2007,11,13,11,21,0.30
2007,11,13,11,22,1.40
2007,11,13,11,23,0.10
2007,11,13,11,24,3.10
2007,11,13,11,25,1.80
2007,11,13,11,26,0.50
2007,11,13,11,27,1.20
2007,11,13,11,28,2.00
2007,11,13,11,29,2.10
2007,11,13,11,30,0.10
2007,11,13,11,31,0.00
2007,11,13,11,32,0.00
2007,11,13,11,33,0.20
2007,11,13,11,34,0.00
2007,11,13,11,35,0.00
2007,11,13,11,36,0.50
2007,11,13,11,37,0.50
2007,11,13,11,38,0.70
2007,11,13,11,39,3.70
2007,11,13,11,40,3.70
2007,11,13,11,41,6.10
2007,11,13,11,42,3.70
2007,11,13,11,43,4.30
2007,11,13,11,44,4.10
2007,11,13,11,45,5.10
2007,11,13,11,46,3.50
2007,11,13,11,47,5.20
2007,11,13,11,48,3.00
2007,11,13,11,49,3.90
2007,11,13,11,50,3.80
2007,11,13,11,51,4.90
2007,11,13,11,52,5.90
2007,11,13,11,53,5.30
2007,11,13,11,54,6.80
2007,11,13,11,55,5.80
2007,11,13,11,56,6.00
2007,11,13,11,57,7.20
2007,11,13,11,58,5.10
2007,11,13,11,59,5.80
2007,11,13,12,00,6.00
2007,11,13,12,01,5.60
2007,11,13,12,02,3.30
2007,11,13,12,03,1.00
2007,11,13,12,04,3.10
2007,11,13,12,05,2.80
2007,11,13,12,06,2.30
2007,11,13,12,07,0.50
2007,11,13,12,08,0.20
2007,11,13,12,09,1.30
2007,11,13,12,10,2.50
2007,11,13,12,11,0.90
2007,11,13,12,12,0.90
2007,11,13,12,13,0.80
2007,11,13,12,14,1.50
2007,11,13,12,15,2.30
2007,11,13,12,16,3.00
2007,11,13,12,17,2.40
2007,11,13,12,18,4.40
2007,11,13,12,19,3.20
2007,11,13,12,20,3.30
2007,11,13,12,21,2.90
2007,11,13,12,22,4.40
2007,11,13,12,23,4.30
2007,11,13,12,24,6.80
2007,11,13,12,25,8.70
2007,11,13,12,26,8.90
2007,11,13,12,27,13.00
2007,11,13,12,28,8.50
2007,11,13,12,29,13.60
2007,11,13,12,30,15.00
2007,11,13,12,31,10.50
2007,11,13,12,32,9.70
2007,11,13,12,33,12.10
2007,11,13,12,34,15.70
2007,11,13,12,35,12.30
2007,11,13,12,36,12.20
2007,11,13,12,37,12.00
2007,11,13,12,38,13.00
2007,11,13,12,39,9.10
2007,11,13,12,40,12.30
2007,11,13,12,41,9.40
2007,11,13,12,42,8.60
2007,11,13,12,43,11.00
2007,11,13,12,44,8.40
2007,11,13,12,45,8.10
2007,11,13,12,46,9.30
2007,11,13,12,47,7.50
2007,11,13,12,48,12.00
2007,11,13,12,49,8.90
2007,11,13,12,50,10.50
2007,11,13,12,51,11.30
2007,11,13,12,52,9.40
2007,11,13,12,53,8.00
2007,11,13,12,54,8.80
2007,11,13,12,55,10.70
2007,11,13,12,56,9.60
2007,11,13,12,57,9.80
2007,11,13,12,58,10.30
2007,11,13,12,59,15.40
2007,11,13,13,00,16.50
2007,11,13,13,01,15.00
2007,11,13,13,02,10.30
2007,11,13,13,03,8.10
2007,11,13,13,04,10.10
2007,11,13,13,05,17.60
2007,11,13,13,06,11.40
2007,11,13,13,07,12.50
2007,11,13,13,08,14.10
2007,11,13,13,09,16.30
2007,11,13,13,10,12.30
2007,11,13,13,11,11.30
2007,11,13,13,12,15.50
2007,11,13,13,13,12.70
2007,11,13,13,14,13.80
2007,11,13,13,15,11.30
2007,11,13,13,16,13.10
2007,11,13,13,17,12.70
2007,11,13,13,18,9.10
2007,11,13,13,19,9.30
2007,11,13,13,20,11.70
2007,11,13,13,21,10.20
2007,11,13,13,22,9.70
2007,11,13,13,23,7.20
2007,11,13,13,24,7.80
2007,11,13,13,25,5.10
2007,11,13,13,26,5.30
2007,11,13,13,27,4.70
2007,11,13,13,28,5.70
2007,11,13,13,29,7.30
2007,11,13,13,30,6.10
2007,11,13,13,31,10.40
2007,11,13,13,32,11.40
2007,11,13,13,33,8.90
2007,11,13,13,34,9.20
2007,11,13,13,35,9.20
2007,11,13,13,36,8.60
2007,11,13,13,37,8.70
2007,11,13,13,38,6.80
2007,11,13,13,39,9.00
2007,11,13,13,40,10.90
2007,11,13,13,41,8.60
2007,11,13,13,42,7.10
2007,11,13,13,43,6.50
2007,11,13,13,44,7.70
2007,11,13,13,45,6.60
2007,11,13,13,46,10.10
2007,11,13,13,47,7.60
2007,11,13,13,48,8.70
2007,11,13,13,49,8.30
2007,11,13,13,50,8.10
2007,11,13,13,51,9.50
2007,11,13,13,52,14.40
2007,11,13,13,53,13.60
2007,11,13,13,54,12.40
2007,11,13,13,55,10.20
2007,11,13,13,56,9.10
2007,11,13,13,57,8.90
2007,11,13,13,58,7.60
2007,11,13,13,59,10.00
2007,11,13,14,00,7.90
2007,11,13,14,01,9.00
2007,11,13,14,02,8.30
2007,11,13,14,03,6.50
2007,11,13,14,04,7.60
2007,11,13,14,05,10.10
2007,11,13,14,06,7.00
2007,11,13,14,07,5.60
2007,11,13,14,08,6.60
2007,11,13,14,09,12.20
2007,11,13,14,10,8.70
2007,11,13,14,11,9.00
2007,11,13,14,12,12.00
2007,11,13,14,13,11.00
2007,11,13,14,14,15.50
2007,11,13,14,15,10.70
2007,11,13,14,16,9.40
2007,11,13,14,17,10.80
2007,11,13,14,18,9.90
2007,11,13,14,19,7.00
2007,11,13,14,20,6.90
2007,11,13,14,21,7.20
2007,11,13,14,22,8.40
2007,11,13,14,23,7.50
2007,11,13,14,24,9.50
2007,11,13,14,25,7.60
2007,11,13,14,26,6.00
2007,11,13,14,27,8.30
2007,11,13,14,28,6.10
2007,11,13,14,29,10.30
2007,11,13,14,30,6.80
2007,11,13,14,31,6.30
2007,11,13,14,32,5.70
2007,11,13,14,33,9.70
2007,11,13,14,34,10.00
2007,11,13,14,35,9.90
2007,11,13,14,36,10.50
2007,11,13,14,37,6.80
2007,11,13,14,38,11.20
2007,11,13,14,39,13.90
2007,11,13,14,40,13.80
2007,11,13,14,41,13.80
2007,11,13,14,42,9.60
2007,11,13,14,43,14.20
2007,11,13,14,44,13.60
2007,11,13,14,45,13.60
2007,11,13,14,46,11.70
2007,11,13,14,47,10.20
2007,11,13,14,48,10.70
2007,11,13,14,49,11.00
2007,11,13,14,50,10.30
2007,11,13,14,51,10.10
2007,11,13,14,52,6.40
2007,11,13,14,53,8.00
2007,11,13,14,54,12.00
2007,11,13,14,55,8.90
2007,11,13,14,56,8.80
2007,11,13,14,57,7.90
2007,11,13,14,58,8.90
2007,11,13,14,59,8.10
2007,11,13,15,00,5.80
2007,11,13,15,01,6.70
2007,11,13,15,02,9.70
2007,11,13,15,03,11.70
2007,11,13,15,04,8.60
2007,11,13,15,05,8.20
2007,11,13,15,06,11.40
2007,11,13,15,07,14.00
2007,11,13,15,08,9.40
2007,11,13,15,09,8.80
2007,11,13,15,10,10.30
2007,11,13,15,11,7.50
2007,11,13,15,12,8.10
2007,11,13,15,13,9.90
2007,11,13,15,14,7.20
2007,11,13,15,15,6.80
2007,11,13,15,16,3.50
2007,11,13,15,17,5.10
2007,11,13,15,18,2.30
2007,11,13,15,19,6.80
2007,11,13,15,20,8.30
2007,11,13,15,21,8.90
2007,11,13,15,22,7.50
2007,11,13,15,23,6.40
2007,11,13,15,24,6.80
2007,11,13,15,25,9.20
2007,11,13,15,26,6.20
2007,11,13,15,27,7.10
2007,11,13,15,28,6.00
2007,11,13,15,29,7.60
2007,11,13,15,30,7.70
2007,11,13,15,31,9.80
2007,11,13,15,32,8.90
2007,11,13,15,33,7.00
2007,11,13,15,34,13.40
2007,11,13,15,35,8.70
2007,11,13,15,36,9.10
2007,11,13,15,37,8.90
2007,11,13,15,38,7.30
2007,11,13,15,39,7.20
2007,11,13,15,40,7.60
2007,11,13,15,41,8.40
2007,11,13,15,42,10.00
2007,11,13,15,43,8.90
2007,11,13,15,44,7.20
2007,11,13,15,45,7.50
2007,11,13,15,46,7.40
2007,11,13,15,47,6.70
2007,11,13,15,48,7.40
2007,11,13,15,49,11.60
2007,11,13,15,50,8.10
2007,11,13,15,51,6.00
2007,11,13,15,52,3.90
2007,11,13,15,53,6.30
2007,11,13,15,54,6.10
2007,11,13,15,55,6.60
2007,11,13,15,56,8.10
2007,11,13,15,57,6.80
2007,11,13,15,58,6.90
2007,11,13,15,59,7.30
2007,11,13,16,00,8.00
2007,11,13,16,01,5.30
2007,11,13,16,02,5.30
2007,11,13,16,03,5.60
2007,11,13,16,04,6.60
2007,11,13,16,05,6.00
2007,11,13,16,06,7.20
2007,11,13,16,07,6.80
2007,11,13,16,08,6.10
2007,11,13,16,09,5.90
2007,11,13,16,10,3.50
2007,11,13,16,11,4.70
2007,11,13,16,12,4.40
2007,11,13,16,13,3.80
2007,11,13,16,14,2.60
2007,11,13,16,15,1.20
2007,11,13,16,16,4.40
2007,11,13,16,17,3.70
2007,11,13,16,18,2.50
2007,11,13,16,19,2.70
2007,11,13,16,20,5.10
2007,11,13,16,21,4.60
2007,11,13,16,22,4.90
2007,11,13,16,23,3.60
2007,11,13,16,24,2.60
2007,11,13,16,25,1.90
2007,11,13,16,26,3.10
2007,11,13,16,27,1.70
2007,11,13,16,28,2.00
2007,11,13,16,29,0.70
2007,11,13,16,30,1.10
2007,11,13,16,31,0.60
2007,11,13,16,32,0.60
2007,11,13,16,33,0.80
2007,11,13,16,34,1.40
2007,11,13,16,35,1.50
2007,11,13,16,36,2.00
2007,11,13,16,37,0.10
2007,11,13,16,38,0.20
2007,11,13,16,39,0.20
2007,11,13,16,40,1.10
2007,11,13,16,41,1.30
2007,11,13,16,42,2.30
2007,11,13,16,43,1.80
2007,11,13,16,44,1.30
2007,11,13,16,45,0.90
2007,11,13,16,46,2.00
2007,11,13,16,47,2.00
2007,11,13,16,48,2.90
2007,11,13,16,49,2.50
2007,11,13,16,50,3.50
2007,11,13,16,51,3.60
2007,11,13,16,52,3.80
2007,11,13,16,53,2.80
2007,11,13,16,54,2.50
2007,11,13,16,55,2.00
2007,11,13,16,56,1.90
2007,11,13,16,57,2.10
2007,11,13,16,58,1.30
2007,11,13,16,59,3.10
2007,11,13,17,00,3.20
2007,11,13,17,01,2.60
2007,11,13,17,02,2.60
2007,11,13,17,03,2.00
2007,11,13,17,04,0.70
2007,11,13,17,05,0.50
2007,11,13,17,06,0.20
2007,11,13,17,07,0.10
2007,11,13,17,08,0.10
2007,11,13,17,09,0.70
2007,11,13,17,10,2.40
2007,11,13,17,11,1.20
2007,11,13,17,12,1.10
2007,11,13,17,13,0.60
2007,11,13,17,14,0.40
2007,11,13,17,15,1.40
2007,11,13,17,16,0.80
2007,11,13,17,17,0.20
2007,11,13,17,18,0.60
2007,11,13,17,19,1.70
2007,11,13,17,20,0.90
2007,11,13,17,21,1.30
2007,11,13,17,22,1.40
2007,11,13,17,23,0.60
2007,11,13,17,24,4.30
2007,11,13,17,25,3.90
2007,11,13,17,26,2.90
2007,11,13,17,27,3.20
2007,11,13,17,28,3.40
2007,11,13,17,29,2.80
2007,11,13,17,30,2.20
2007,11,13,17,31,1.40
2007,11,13,17,32,0.50
2007,11,13,17,33,1.50
2007,11,13,17,34,0.20
2007,11,13,17,35,0.10
2007,11,13,17,36,0.00
2007,11,13,17,37,0.00
2007,11,13,17,38,0.00
2007,11,13,17,39,0.80
2007,11,13,17,40,0.60
2007,11,13,17,41,0.00
2007,11,13,17,42,0.10
2007,11,13,17,43,0.90
2007,11,13,17,44,2.40
2007,11,13,17,45,3.10
2007,11,13,17,46,2.50
2007,11,13,17,47,3.70
2007,11,13,17,48,1.50
2007,11,13,17,49,3.40
2007,11,13,17,50,1.90
2007,11,13,17,51,0.30
2007,11,13,17,52,1.90
2007,11,13,17,53,2.40
2007,11,13,17,54,3.50